TVS1KP LKPR-LKTB

Flight info

Callsign TVS1KP
Flight time N/A
Altitude 17000
Route VOZ DCT TUMKA
Aircraft B38M/M-SDE1FGHILORVWXY/HB1

Departure

Time 2026-05-04 16:10
Airport Václav Havel Airport Prague (LKPR)

Arrival

Time N/A
Airport Brno-Tuřany Airport (LKTB)
Time Latitude Longitude Altitude Speed Heading
2026-05-04 15:39 50.10365 14.26739 1176 ft 0 kts 34°
2026-05-04 15:59 50.10353 14.26726 1181 ft 4 kts 33°
2026-05-04 15:59 50.10336 14.26711 1182 ft 2 kts 17°
2026-05-04 16:00 50.10325 14.26710 1182 ft 2 kts 328°
2026-05-04 16:00 50.10317 14.26721 1183 ft 2 kts 308°
2026-05-04 16:00 50.10315 14.26725 1183 ft 0 kts 307°
2026-05-04 16:01 50.10322 14.26709 1182 ft 4 kts 306°
2026-05-04 16:01 50.10341 14.26662 1182 ft 6 kts 290°
2026-05-04 16:02 50.10338 14.26623 1184 ft 1 kts 245°
2026-05-04 16:02 50.10337 14.26621 1184 ft 1 kts 244°
2026-05-04 16:02 50.10224 14.26551 1198 ft 13 kts 136°
2026-05-04 16:03 50.10139 14.26723 1200 ft 27 kts 127°
2026-05-04 16:03 50.10004 14.27005 1206 ft 38 kts 127°
2026-05-04 16:03 50.09820 14.27371 1207 ft 43 kts 136°
2026-05-04 16:03 50.09650 14.27626 1210 ft 28 kts 135°
2026-05-04 16:04 50.09512 14.27836 1215 ft 29 kts 134°
2026-05-04 16:04 50.09248 14.28245 1229 ft 16 kts 137°
2026-05-04 16:04 50.09155 14.28276 1233 ft 0 kts 206°
2026-05-04 16:05 50.09153 14.28275 1234 ft 2 kts 206°
2026-05-04 16:05 50.09063 14.28168 1237 ft 7 kts 225°
2026-05-04 16:06 50.09062 14.28101 1236 ft 10 kts 299°
2026-05-04 16:06 50.09110 14.28038 1235 ft 0 kts 311°
2026-05-04 16:09 50.09205 14.27843 1233 ft 61 kts 307°
2026-05-04 16:09 50.10303 14.25566 1367 ft 187 kts 309°
2026-05-04 16:10 50.11950 14.22053 3332 ft 200 kts 305°
2026-05-04 16:11 50.14794 14.16232 4449 ft 245 kts 306°
2026-05-04 16:11 50.15834 14.14084 4617 ft 252 kts 306°
2026-05-04 16:12 50.17951 14.06630 6540 ft 267 kts 259°
2026-05-04 16:12 50.14488 14.00045 8125 ft 273 kts 218°
2026-05-04 16:13 50.10907 13.98682 9186 ft 282 kts 170°
2026-05-04 16:13 50.07209 14.01001 10311 ft 290 kts 160°
2026-05-04 16:14 50.03490 14.03555 11376 ft 294 kts 159°
2026-05-04 16:14 49.99695 14.06189 11928 ft 310 kts 159°
2026-05-04 16:15 49.93362 14.10591 11950 ft 348 kts 159°
2026-05-04 16:16 49.88905 14.13682 13471 ft 353 kts 159°
2026-05-04 16:16 49.83190 14.21064 15628 ft 375 kts 130°
2026-05-04 16:17 49.80003 14.27527 15952 ft 377 kts 130°
2026-05-04 16:18 49.75235 14.37254 16678 ft 383 kts 130°
2026-05-04 16:18 49.73620 14.40543 16871 ft 383 kts 130°
2026-05-04 16:19 49.68524 14.50898 16928 ft 417 kts 129°
2026-05-04 16:19 49.65251 14.58351 16960 ft 421 kts 124°
2026-05-04 16:20 49.60559 14.69804 16958 ft 421 kts 125°
2026-05-04 16:20 49.57416 14.77384 16960 ft 412 kts 125°
2026-05-04 16:21 49.53199 14.88964 16948 ft 424 kts 105°
2026-05-04 16:22 49.52100 14.97849 16956 ft 426 kts 102°
2026-05-04 16:22 49.50633 15.10660 16259 ft 396 kts 102°
2026-05-04 16:23 49.49226 15.23011 14921 ft 387 kts 102°
2026-05-04 16:24 49.47371 15.39135 13085 ft 379 kts 102°
2026-05-04 16:25 49.46452 15.47041 12203 ft 372 kts 102°
2026-05-04 16:26 49.44662 15.62311 10994 ft 347 kts 102°
2026-05-04 16:26 49.43416 15.72823 10525 ft 320 kts 102°
2026-05-04 16:27 49.42634 15.79387 10220 ft 304 kts 102°
2026-05-04 16:28 49.41480 15.89011 8551 ft 308 kts 102°
2026-05-04 16:28 49.39614 15.97934 7632 ft 277 kts 122°
2026-05-04 16:29 49.35869 16.08033 6869 ft 271 kts 122°
2026-05-04 16:30 49.33086 16.15527 6252 ft 269 kts 122°
2026-05-04 16:31 49.30939 16.20124 5775 ft 260 kts 132°
2026-05-04 16:31 49.27766 16.26147 5214 ft 230 kts 130°
2026-05-04 16:32 49.25395 16.30727 4587 ft 212 kts 131°
2026-05-04 16:33 49.23614 16.34171 4093 ft 202 kts 131°
2026-05-04 16:33 49.21967 16.36268 3651 ft 189 kts 150°
2026-05-04 16:34 49.19788 16.38263 3126 ft 178 kts 152°
2026-05-04 16:34 49.18746 16.39198 2873 ft 167 kts 152°
2026-05-04 16:35 49.17422 16.43259 2889 ft 143 kts 109°
2026-05-04 16:35 49.16992 16.47756 2814 ft 142 kts 103°
2026-05-04 16:36 49.16868 16.49250 2803 ft 142 kts 103°
2026-05-04 16:36 49.16614 16.52230 2828 ft 143 kts 103°
2026-05-04 16:37 49.16363 16.55272 2574 ft 144 kts 103°
2026-05-04 16:37 49.16222 16.56761 2386 ft 140 kts 107°
2026-05-04 16:37 49.15975 16.59772 1908 ft 143 kts 104°
2026-05-04 16:38 49.15713 16.62746 1523 ft 140 kts 105°
2026-05-04 16:39 49.15338 16.67054 908 ft 136 kts 103°